Regional Weather Roundup
Issued by NWS Green Bay, WI

Home | Current Version | Previous Version | Text Only | Print | Product List | Glossary On
Versions: 1 2 3 4 5 6 7 8 9 10 11 12 13 14 15 16 17 18 19 20 21 22 23 24 25 26 27 28 29 30 31 32 33 34 35 36 37 38 39 40 41 42 43 44 45 46 47 48 49 50
000
ASUS43 KGRB 260159
RWRGRB

NORTH-CENTRAL AND NORTHEAST WISCONSIN REGIONAL WEATHER ROUNDUP
NATIONAL WEATHER SERVICE GREEN BAY WI
800 PM CST SUN JAN 25 2015

WIZ005-009-010>012-018-019-260300-
NORTH CENTRAL WISCONSIN

CITY           SKY/WX    TMP DP  RH WIND       PRES   REMARKS
IRONWOOD       PTCLDY     5   1  85 CALM      29.99F
MANITOWISH WTR NOT AVBL
ARBOR VITAE    NOT AVBL
EAGLE RIVER    NOT AVBL
LAND O LAKES   NOT AVBL
RHINELANDER    CLOUDY    13   5  70 CALM      30.03R
PHILLIPS       NOT AVBL
ANTIGO         NOT AVBL
TOMAHAWK       NOT AVBL
MERRILL        NOT AVBL
$$

WIZ013-073-260300-
NORTHEAST WISCONSIN

CITY           SKY/WX    TMP DP  RH WIND       PRES   REMARKS
IRON MOUNTAIN  PTCLDY     5   0  79 NW3       30.05R
MARINETTE      CLEAR      9   5  85 CALM      30.08R
$$

WIZ017-030-035>037-045-260300-
CENTRAL WISCONSIN

CITY           SKY/WX    TMP DP  RH WIND       PRES   REMARKS
MEDFORD        NOT AVBL
WAUSAU         CLOUDY    17   6  62 CALM      30.04R
MOSINEE        CLOUDY    18   9  68 S3        30.06R
MARSHFIELD     CLOUDY    18   9  68 NW5       30.05R
WISC RAPIDS    CLOUDY    17   8  67 NW3       30.09R
STEVENS POINT  NOT AVBL
WAUPACA        NOT AVBL
SHAWANO        NOT AVBL
CLINTONVILLE   NOT AVBL
$$

WIZ038-039-048-051-260300-
FOX VALLEY

CITY           SKY/WX    TMP DP  RH WIND       PRES   REMARKS
NWS GREEN BAY  CLOUDY    16   9  74 CALM      30.08S
APPLETON       MOCLDY    16   7  67 E7        30.06S WCI   6
OSHKOSH        MOCLDY    16   8  71 NE6       30.05F WCI   7
FOND DU LAC    CLEAR     16   9  74 NE8       30.05F WCI   5
$$

WIZ022-050-052-260300-
EAST CENTRAL WISCONSIN

CITY           SKY/WX    TMP DP  RH WIND       PRES   REMARKS
STURGEON BAY   CLEAR     12   3  67 N5        30.09R WCI   4
MANITOWOC      NOT AVBL
SHEBOYGAN      PTCLDY    17  10  74 N8        30.05R WCI   7
$$

LMZ563-521-522-541>543-260300-
LAKESHORE

STATION/POSITION TIME  TEMP    WIND        PRES    VSBY  WAVE
                       AIR SEA DIR/SP/G                  HT/PER
                 (UTC) (F)     (DEG/KT/KT) (MB)    (MI)  (FT/S)
SHEBOYGAN LKSHOR 0100   24      30/ 20/ 24 1018.6R
KEWAUNEE LKSHORE 0100   17     350/  7/ 10 1017.4R
NORTHPORT PIER   0100   19      40/  6/  8 1019.0R
SISTER BAY LKSHO 0100   13        CALM       N/A
STURGEON BAY CG  0100   13     320/  4     1019.2      6   1
CHAMBERS ISLAND  0100    8        CALM     1019.0R
MENOMINEE LKSHOR 0100   15      20/  2/  3 1019.4R
$$



USA.gov is the U.S. government's official web portal to all federal, state and local government web resources and services.